Погода Никольское

Погода Никольское : погода сейчас, прогноз погоды и архив. Всё, что Вы хотите узнать о погоде Никольское!

Хотите узнать прогноз погоды Никольское? Тогда Вам сюда: Погода Никольское

Поиск расширенной информации на нашем сайте:

Полезная информация: Бомба третий ряд по очень низкой цене!
теплообменник воды в бассейне

Другие новости

Новости СМИ2

Главная страница сайта

Новости сайта

03.07.2017

Напоминаем, что на нашем специализированном сайте Метеоцентр.Азия вы можете получить высокодетализированные автоматические прогнозы погоды по пунктам России, СНГ и мира в авиационном формате (включающие направление и скорость ветра, видимость, явления погоды, количество и форму облачности, нижнюю и верхнюю границу облачности).

Рекомендуем: для Вас архив аудиокниг в UA-IX

Погода Никольское - сегодня

Время (UTC), дата Ветер
(°,м/с) 
Видим.   Явления Облачность Т
(°С)
Тd
(°С)
f(%) Тe
(°С)
Pmin
(гПа)
dP
(гПа)
Po
(мм)
O2
(г/м3)
Тmin Tmax R s Состояние
почвы
12 16.08.17 200 (Ю) 9-12{12}  20000 м    10/10 600 м 
[Sc]
+11.6 +10.5 93 +11  1023.4  -0.7  766  294           
18 16.08.17 200 (Ю) 7-10{11}  20000 м    10/10 600 м 
[Sc]
+11.6 +10.4 92 +11  1022  -0.6  765  294           
21 16.08.17 200 (Ю) 8-10{10}  20000 м    10/10 600 м 
[Sc]
+11.9 +10.6 92 +12  1021.3  -0.6  764  293  +11.6         
00 17.08.17 200 (Ю) 7{11}  20000 м    8/8 600 м 
[Sc]
+13.7 +11 84 +15  1020.4  -0.9  764  291           
06 17.08.17 190 (Ю) 8-10{11}  20000 м    4/4 600 м 
[Cu Sc]
+12.6 +11.2 91 +13  1017.8  -1.1  762  291           
09 17.08.17 180 (Ю) 7-10{10}  20000 м    5/5 600 м 
[Sc]
+12.1 +11.3 95 +14  1017.3  -0.6  761  292    +13.8       
12 17.08.17 180 (Ю) 8-10{10}  20000 м    8/8 600 м 
[Sc]
+12 +11.4 96 +13  1017  -0.2  761  292           
15 17.08.17 200 (Ю) 6{11}  20000 м    9/9 600 м 
[Sc]
+12.2 +11.1 93 +13  1015.8  -1.2  760  291           
18 17.08.17 200 (Ю) 7-10{10}  20000 м    10/10 600 м 
[Sc]
+11.9 +10.6 92 +12  1015.2  -0.6  760  291           
21 17.08.17 200 (Ю) 6{11}  20000 м    10/10 600 м 
[Sc]
+12.4 +11.1 92 +13  1015.2  0.1  760  291  +1.8         
00 18.08.17 190 (Ю) 20000 м    10/10 200 м 
[St]
+12.3 +11.7 96 +14  1014.8  -0.4  760  291           
03 18.08.17 200 (Ю) 20000 м    10/10 200 м 
[St]
+12.8 +12 95 +16  1014  -0.8  759  290           
06 18.08.17 200 (Ю) 4000 м  дымка  10/10 100 м 
[St]
+12.5 +12 97 +16  1013.6  -0.4  759  290           
09 18.08.17 230 (ЮЗ) 4000 м  дымка  10/10 100 м 
[St]
+12.1 +11.5 96 +15  1014.2  0.6  759  291    +12.9       
12 18.08.17 220 (ЮЗ) 4000 м  дымка  10/10 100 м 
[St]
+11.6 +11.3 98 +14  1014.1  759  291           
15 18.08.17 200 (Ю) 4000 м  дымка  10/10 100 м 
[St]
+11.6 +11.3 98 +14  1013.5  -0.6  758  291           
18 18.08.17 210 (ЮЗ) 4000 м  дымка  10/10 100 м 
[St]
+11.3 +11 98 +14  1013.4  -0.1  758  291           
21 18.08.17 190 (Ю) 4000 м  дымка  10/10 100 м 
[St]
+11.4 +11.1 98 +14  1013.8  0.4  759  291  +11.2         
00 19.08.17 200 (Ю) 4000 м  дымка  10/10 200 м 
[St]
+12.1 +11.7 97 +15  1013.9  0.2  759  291           
03 19.08.17 210 (ЮЗ) 20000 м    10/10 300 м 
[St]
+12.1 +11.5 96 +15  1013.5  -0.4  759  290           
06 19.08.17 200 (Ю) 4000 м  дымка  10/10 300 м 
[St]
+11.8 +11.3 97 +15  1013.5  -0.1  758  291           
12 19.08.17 200 (Ю) 2000 м  дымка  10/10 100 м 
[St]
+11.1 +11 99 +12  1014.4  0.4  759  292           
15 19.08.17 220 (ЮЗ) 2000 м  дымка  10/10 100 м 
[St]
+11.3 +11.1 99 +13  1014.5  759  292           
18 19.08.17 230 (ЮЗ) 4000 м  слаб. морось  10/10 100 м 
[St]
+11.4 +11.2 99 +15  1015.4  0.9  760  292           
21 19.08.17 220 (ЮЗ) 4000 м  слаб. морось  10/10 100 м 
[St]
+11.8 +11.5 98 +15  1016.2  0.8  761  292  +11    0.1     
Время (UTC), дата Ветер
(°,м/с) 
Видим.   Явления Облачность Т
(°С)
Тd
(°С)
f(%) Тe
(°С)
Pmin
(гПа)
dP
(гПа)
Po
(мм)
O2
(г/м3)
Тmin Tmax R s Состояние
почвы

Для получения пояснительной информации подведите курсор к названию столбца.

ПОГОДА Никольское - архив

Всё, что Вы хотите узнать о погоде Никольское - удобно и подробно!

Выберите нужную дату (начиная с 1 января 2015* года) и нажмите кнопку "Найти".
Будут отображены архивные сводки погоды по пункту Никольское, начиная с указанной даты.


Отображать данные в формате CSV (для использования в таблицах Excel)


Внимание! Наш архив погоды предназначен исключительно для личного некоммерческого использования в познавательных целях. Если Вам необходимы официальные справки о состоянии погоды (для производственных, юридических, коммерческих и т.п. целей), обращайтесь в органы Росгидромета.

*Примечание: данная дата относится к архиву по метеостанциям СССР (Россия, СНГ, Балтия).
Архив по метеостанциям Зарубежной Европы и Азии (кроме Китая) хранится 10 дней, по другим регионам земного шара (Китай, Африка, Америка, Австралия, Океания) - 1 день.

Никольское - район местоположения метеостанции


Название, широта, долгота, высота метеостанции:
Никольское 55.2°ш. 166°д. 18 м над ур. моря [Российская Федерация]

Дополнительная информация

В oтличие oт бoльшинства пoгoдных сайтoв мы публикуем пoдрoбную метеoинфoрмацию в детальнoм прoфессиoнальнoм фoрмате.

Характеристики температуры и влажнoсти вoздуха измеряются на высoте 2 м в тени вдали oт зданий и деревьев.
Скoрoсть ветра измеряется на высoте 10 м (на урoвне рoста челoвека скoрoсть ветра ниже в 1.5-2 раза). Если метеoстанция нахoдится в гoрoде или в лесу, тo скoрoсть ветра занижена на 2-4 м/с пo сравнению с oткрытым местoм. Скoрoсть ветра над акватoриями крупных рек и oзёр, а также на вершинах хoлмoв на 2-5 м/с выше, чем в oбычных услoвиях.
Атмoсфернoе давление в разных тoчках местнoсти мoжет значительнo oтличаться oт давления на метеoстанции, в зависимoсти oт услoвий рельефа (при пoдъёме на 10 м давление пoнижается примернo на 1 мм рт.ст.).